Home > Weather > Bend > Past weeks

Flag for USA Past Weather in Bend, Oregon, USA — Yesterday and Last 2 Weeks

Now
91 °F

Sunny.


Feels Like: 87 °F
Forecast: 55 / 87 °F
Wind: 3 mph from North

Location: Roberts Field Airport

Current Time: Aug 28, 2016 at 5:23:17 PM

Latest Report: Aug 28, 2016 at 4:56 PM


Visibility: 10 mi

Pressure: 29.93 "Hg (26.46 "Hg at 1103m altitude)

Humidity: 14%

Dew Point: 35 °F

Location of BendLocation

Past Weather in Bend — Graph

°F

Bend Temperature Yesterday

Maximum temperature yesterday: 88 °F (at 1:56 PM)
Minimum temperature yesterday: 49 °F (at 6:56 AM)
Average temperature yesterday: 71 °F

High & Low Weather Summary for the Past Weeks

 TemperatureHumidityPressure
High95 °F (Aug 13, 3:56 PM)69% (Aug 22, 4:56 AM)30.22 "Hg (Aug 22, 4:56 AM)
Low40 °F (Aug 23, 4:56 AM)4% (Aug 21, 2:56 PM)29.80 "Hg (Aug 21, 3:56 PM)
Average70 °F28%29.98 "Hg
* Reported Aug 13 3:56 PM — Aug 28 3:56 PM, Bend, Weather by CustomWeather, © 2016

Note: Actual official high and low records may vary slightly from our data, if they occured in-between our weather recording intervals... More about our weather records

Advertising

Bend Weather History for the Previous 24 Hours

Scroll right to see more
 ConditionsComfort  
Time TempWeatherWind HumidityBarometerVisibility
3:56 PM
Sun, Aug 28
92 °FSunny.7 mph13%29.93 "Hg10 mi
2:56 PM91 °FSunny.10 mph14%29.94 "Hg10 mi
1:56 PM89 °FSunny.12 mph16%29.97 "Hg10 mi
12:56 PM87 °FSunny.6 mph17%29.98 "Hg10 mi
11:56 AM83 °FSunny.5 mph19%29.99 "Hg10 mi
10:56 AM80 °FSunny.6 mph22%30.01 "Hg10 mi
9:56 AM77 °FSunny.3 mph24%30.01 "Hg10 mi
8:56 AM70 °FSunny.6 mph31%30.01 "Hg10 mi
7:56 AM65 °FSunny.8 mph37%30.01 "Hg10 mi
6:56 AM50 °FClear.5 mph59%30.02 "Hg10 mi
5:56 AM51 °FClear.No wind56%30.00 "Hg10 mi
4:56 AM53 °FClear.No wind55%29.99 "Hg10 mi
3:56 AM54 °FClear.No wind53%29.98 "Hg10 mi
2:56 AM58 °FClear.6 mph46%29.96 "Hg10 mi
1:56 AM56 °FClear.8 mph51%29.96 "Hg10 mi
12:56 AM58 °FClear.5 mph47%29.95 "Hg10 mi
11:56 PM
Sat, Aug 27
67 °FClear.5 mph36%29.92 "Hg10 mi
10:56 PM69 °FClear.No wind35%29.91 "Hg10 mi
9:56 PM70 °FClear.6 mph31%29.91 "Hg10 mi
8:56 PM74 °FClear.15 mph27%29.89 "Hg10 mi
7:56 PM77 °FSunny.20 mph24%29.88 "Hg10 mi
6:56 PM81 °FSunny.16 mph21%29.88 "Hg10 mi
5:56 PM84 °FSunny.17 mph19%29.86 "Hg10 mi
Weather by CustomWeather, © 2016

See weather overviewHow to use our weather pages